Location: Westminster
(33.3626°N, 96.4619°W)
Time: 13:32:39
(UTC+00:00)

Cosmos 773 Rocket - Pass Details

Date: 03 December 2021
Orbit: 746 x 776 km, 74.1° (Epoch: 29 January)

Event Time Altitude Azimuth Distance (km) Brightness Sun altitude
Rises 12:41:09 0° 345° (NNW) 3,230 6.9 -7.0°
Reaches altitude 10° 12:43:33 10° 347° (NNW) 2,296 6.1 -6.5°
Maximum altitude 12:48:45 75° 73° (ENE) 784 4.2 -5.5°
Drops below altitude 10° 12:53:53 10° 159° (SSE) 2,264 7.2 -4.6°
Sets 12:56:14 0° 160° (SSE) 3,181 7.9 -4.1°
